Tracking 18785 objects as of 20-August-2017
HD Live streaming from Space Station
objects crossing your sky now

SL-8 R/B

Track SL-8 R/B now!
10-day predictions


NORAD ID: 24306
Int'l Code: 1996-052C
Perigee: 970.1 km
Apogee: 1,008.1 km
Inclination: 82.9 °
Period: 104.7 minutes
Semi major axis: 7360 km
RCS: 5.014 m2 (large)
Launch date: September 5, 1996
Source: Commonwealth of Independent States (former USSR) (CIS)
Launch site: PLESETSK MISSILE AND SPACE COMPLEX (PKMTR)

Note: This is a ROCKET BODY
Your satellite tracking list
Your tracking list is empty





NASA's NSSDC Master Catalog

Two Line Element Set (TLE):
1 24306U 96052C   17232.24495414 +.00000011 +00000-0 -48288-5 0  9993
2 24306 082.9345 293.0122 0025760 198.3329 161.6901 13.74918305051294
Source of the keplerian elements: AFSPC